Location: Narragansett
(41.4496°N, 71.4488°W)
Time: 17:08:32
(UTC+00:00)

Nauka - Pass Details

Date: 22 September 2021
Orbit: 417 x 423 km, 51.6° (Epoch: 26 October)

Event Time Altitude Azimuth Distance (km) Brightness Sun altitude
Rises 23:29:01 0° 268° (W) 2,357 ? -9.5°
Reaches altitude 10° 23:31:22 10° 283° (WNW) 1,496 ? -10.0°
Maximum altitude 23:34:10 24° 339° (NNW) 922 ? -10.5°
Drops below altitude 10° 23:36:58 10° 36° (NE) 1,503 ? -11.0°
Enters shadow 23:38:06 - 45° (NE) 1,902 ? -11.2°
